This is the latest recevied weather packets stored in our database for station/object KC3DGM. If no packets are shown the sender has not sent any weather packets the latest 10 day(s).
| Time | Temp. | Humidity | Pressure | Rain* | Wind** | Luminosity | Snow |
|---|---|---|---|---|---|---|---|
| 1777742815 | 5° C | 80% | 987.6 hPa | 0 mm | - | 131 W/m² | - |
| 1777742511 | 5° C | 80% | 987.7 hPa | 0 mm | - | 149 W/m² | - |
| 1777742207 | 5° C | 82% | 987.8 hPa | 0 mm | - | 169 W/m² | - |
| 1777741904 | 4.44° C | 84% | 987.5 hPa | 0 mm | - | 150 W/m² | - |
| 1777741601 | 4.44° C | 83% | 987.9 hPa | 0 mm | - | 95 W/m² | - |
| 1777741298 | 3.89° C | 86% | 987.6 hPa | 0 mm | - | 108 W/m² | - |
| 1777740995 | 3.89° C | 86% | 987.9 hPa | 0 mm | - | 161 W/m² | - |
| 1777740692 | 3.89° C | 87% | 987.9 hPa | 0 mm | - | 184 W/m² | - |
| 1777740387 | 3.89° C | 88% | 987.8 hPa | 0 mm | - | 154 W/m² | - |
| 1777740085 | 3.33° C | 88% | 987.9 hPa | 0 mm | - | 117 W/m² | - |
| 1777739781 | 3.89° C | 89% | 987.6 hPa | 0 mm | - | 100 W/m² | - |
| 1777739477 | 3.89° C | 89% | 987.7 hPa | 0 mm | - | 107 W/m² | - |
| 1777739174 | 3.33° C | 89% | 987.7 hPa | 0 mm | - | 81 W/m² | - |
| 1777738871 | 3.33° C | 89% | 987.6 hPa | 0 mm | - | 77 W/m² | - |
| 1777738568 | 3.33° C | 90% | 987.8 hPa | 0 mm | - | 112 W/m² | - |
| 1777738266 | 3.33° C | 90% | 987.7 hPa | 0 mm | - | 121 W/m² | - |
| 1777737964 | 3.33° C | 91% | 988 hPa | 0 mm | - | 95 W/m² | - |
| 1777737662 | 3.33° C | 91% | 987.9 hPa | 0 mm | - | 55 W/m² | - |
| 1777737360 | 2.78° C | 90% | 987.8 hPa | 0 mm | - | 55 W/m² | - |
| 1777737056 | 3.33° C | 90% | 988 hPa | 0 mm | - | 58 W/m² | - |
| 1777736752 | 3.33° C | 90% | 988 hPa | 0 mm | - | 89 W/m² | - |
| 1777736124 | 3.33° C | 90% | 987.7 hPa | 0 mm | - | 113 W/m² | - |
| 1777735822 | 3.33° C | 90% | 987.8 hPa | 0 mm | - | 135 W/m² | - |
| 1777735519 | 2.78° C | 90% | 987.7 hPa | 0 mm | - | 163 W/m² | - |
| 1777735216 | 2.78° C | 91% | 987.9 hPa | 0 mm | - | 166 W/m² | - |
* Rain latest hour (hover to see other rain measurements)
** Current wind speed in m/s (hover to see current wind gust speed)